Baker, MT

9:05 PM MDT on June 22, 2017 (GMT -0600)
Baker Municipal

Weather History for KBHK - March, 2012

Change the Weather History Date:

Thursday, March 22, 2012

  Actual Average Record
Temperature  
Mean Temperature 53 °F -  
Max Temperature 73 °F 47 °F 73 °F (2009)
Min Temperature 33 °F 30 °F -24 °F (2002)
Degree Days  
Heating Degree Days 12    
Growing Degree Days 3 (Base 50)    
Moisture  
Dew Point 23 °F    
Average Humidity 36    
Maximum Humidity 80    
Minimum Humidity 12    
Precipitation  
Precipitation 0.00 in - - ()
Sea Level Pressure  
Sea Level Pressure 29.89 in    
Wind  
Wind Speed 10 mph (SE)    
Max Wind Speed 21 mph    
Max Gust Speed 28 mph    
Visibility 10 miles    
Events      
Averages and records for this station are not official NWS values.
T = Trace of Precipitation, MM = Missing Value Source: NWS Daily Summary

Daily Weather History Graph

Daily Weather History Graph

Search for Another Location

Airport or City:

Trip Planner

Search our weather history database for the weather conditions in past years. The results will help you decide how hot, cold, wet, or windy it might be!

Date:

Astronomy

Mar. 22, 2012 Rise Set
Actual Time 6:55 AM MDT 7:13 PM MDT
Civil Twilight 6:25 AM MDT 7:43 PM MDT
Nautical Twilight 5:49 AM MDT 8:18 PM MDT
Astronomical Twilight 5:13 AM MDT 8:55 PM MDT
Moon 6:32 AM MDT (3/22) 7:45 PM MDT (3/22)
Length of Visible Light 13h 18m
Length of Day
12h 18m
New Moon, 0% of the Moon is Illuminated
Mar 22
New Moon
Mar 30
First Quarter
Apr 6
Full
Apr 13
Last Quarter
Apr 21
New

Hourly Weather History & Observations

Time (MDT) Temp. Windchill Dew Point Humidity Pressure Visibility Wind Dir Wind Speed Gust Speed Precip Events Conditions
12:51 AM 45.0 °F 39.3 °F 19.0 °F 36% 29.92 in 10.0 mi SSE 11.5 mph - N/A   Clear
1:51 AM 43.0 °F 38.8 °F 19.0 °F 38% 29.93 in 10.0 mi SSE 6.9 mph - N/A   Clear
2:51 AM 39.9 °F 35.8 °F 18.0 °F 41% 29.93 in 10.0 mi East 5.8 mph - N/A   Clear
3:51 AM 37.9 °F - 19.9 °F 48% 29.92 in 10.0 mi Calm Calm - N/A   Clear
4:51 AM 34.0 °F 28.8 °F 18.0 °F 52% 29.94 in 10.0 mi SE 5.8 mph - N/A   Clear
5:51 AM 33.1 °F 26.9 °F 18.0 °F 54% 29.94 in 10.0 mi SE 6.9 mph - N/A   Clear
6:51 AM 34.0 °F 29.8 °F 17.1 °F 50% 29.96 in 10.0 mi East 4.6 mph - N/A   Clear
7:51 AM 37.9 °F 32.1 °F 19.9 °F 48% 29.97 in 10.0 mi SSE 8.1 mph - N/A   Clear
8:51 AM 51.1 °F - 19.9 °F 29% 29.93 in 10.0 mi SE 8.1 mph - N/A   Clear
9:51 AM 55.0 °F - 19.9 °F 25% 29.92 in 10.0 mi SE 11.5 mph - N/A   Clear
10:51 AM 62.1 °F - 21.0 °F 21% 29.90 in 10.0 mi SE 17.3 mph - N/A   Clear
11:51 AM 68.0 °F - 19.9 °F 16% 29.88 in 10.0 mi SE 17.3 mph 23.0 mph N/A   Clear
12:51 PM 71.1 °F - 19.9 °F 14% 29.86 in 10.0 mi SSE 11.5 mph 24.2 mph N/A   Clear
1:51 PM 73.0 °F - 19.9 °F 14% 29.83 in 10.0 mi SSE 20.7 mph 24.2 mph N/A   Clear
2:51 PM 73.0 °F - 19.9 °F 14% 29.82 in 10.0 mi South 16.1 mph 25.3 mph N/A   Clear
3:51 PM 72.0 °F - 19.0 °F 13% 29.82 in 10.0 mi South 17.3 mph 27.6 mph N/A   Clear
4:51 PM 72.0 °F - 17.1 °F 12% 29.83 in 10.0 mi South 16.1 mph 20.7 mph N/A   Clear
5:51 PM 70.0 °F - 18.0 °F 14% 29.82 in 10.0 mi SSE 11.5 mph - N/A   Clear
6:51 PM 64.0 °F - 19.9 °F 18% 29.84 in 10.0 mi SSE 11.5 mph - N/A   Clear
8:51 PM 55.0 °F - 34.0 °F 45% 29.85 in 10.0 mi SSE 17.3 mph - N/A   Clear
9:51 PM 55.0 °F - 42.1 °F 62% 29.86 in 10.0 mi SSE 17.3 mph - N/A   Clear
10:51 PM 52.0 °F - 44.1 °F 74% 29.85 in 10.0 mi SSE 15.0 mph - N/A   Clear
11:51 PM 48.0 °F - 42.1 °F 80% 29.85 in 10.0 mi SE 11.5 mph - N/A   Clear